| time (UTC) | temp C | wind direction | speed KPH | gust KPH | rain 1hr cm | rain 24hr cm | rain mn cm | humidity % | barometer mb |
| 20260906224549 | 39 | 297 | 8.0 | 17.7 | 0.00 | 0.00 | 0.00 | 24 | 1006.9 |
| 20260906223050 | 39 | 316 | 8.0 | 24.1 | 0.00 | 0.00 | 0.00 | 24 | 1007.1 |
| 20260906222026 | 40 | 315 | 6.4 | 19.3 | 0.00 | 0.00 | 0.00 | 24 | 1007.0 |
| 20260906221551 | 39 | 296 | 9.7 | 19.3 | 0.00 | 0.00 | 0.00 | 24 | 1007.1 |
| 20260906221026 | 39 | 304 | 6.4 | 17.7 | 0.00 | 0.00 | 0.00 | 24 | 1007.1 |
| 20260906220045 | 39 | 288 | 8.0 | 22.5 | 0.00 | 0.00 | 0.00 | 25 | 1007.2 |
| 20260906213525 | 38 | 306 | 6.4 | 19.3 | 0.00 | 0.00 | 0.00 | 25 | 1007.3 |
| 20260906213048 | 38 | 330 | 6.4 | 19.3 | 0.00 | 0.00 | 0.00 | 25 | 1007.5 |
| 20260906212523 | 38 | 288 | 9.7 | 19.3 | 0.00 | 0.00 | 0.00 | 25 | 1007.6 |
| 20260906211557 | 39 | 209 | 3.2 | 17.7 | 0.00 | 0.00 | 0.00 | 25 | 1007.8 |
| 20260906211033 | 38 | 314 | 6.4 | 17.7 | 0.00 | 0.00 | 0.00 | 25 | 1007.7 |
| 20260906210525 | 39 | 5 | 8.0 | 17.7 | 0.00 | 0.00 | 0.00 | 24 | 1007.8 |
| 20260906210052 | 40 | 341 | 4.8 | 14.5 | 0.00 | 0.00 | 0.00 | 24 | 1007.8 |
| 20260906205525 | 40 | 277 | 3.2 | 14.5 | 0.00 | 0.00 | 0.00 | 24 | 1007.9 |
| 20260906205025 | 40 | 309 | 3.2 | 17.7 | 0.00 | 0.00 | 0.00 | 24 | 1007.8 |
| 20260906204553 | 40 | 248 | 6.4 | 19.3 | 0.00 | 0.00 | 0.00 | 24 | 1008.0 |
| 20260906204023 | 39 | 198 | 1.6 | 19.3 | 0.00 | 0.00 | 0.00 | 25 | 1007.9 |
| 20260906203524 | 39 | 212 | 1.6 | 14.5 | 0.00 | 0.00 | 0.00 | 25 | 1008.0 |
| 20260906203058 | 38 | 276 | 3.2 | 14.5 | 0.00 | 0.00 | 0.00 | 25 | 1008.1 |
| 20260906202525 | 38 | 271 | 3.2 | 14.5 | 0.00 | 0.00 | 0.00 | 26 | 1008.2 |
| 20260906202026 | 38 | 0 | 1.6 | 11.3 | 0.00 | 0.00 | 0.00 | 26 | 1008.2 |
| 20260906201558 | 38 | 352 | 1.6 | 14.5 | 0.00 | 0.00 | 0.00 | 26 | 1008.3 |
| 20260906201024 | 38 | 209 | 3.2 | 17.7 | 0.00 | 0.00 | 0.00 | 26 | 1008.4 |
| 20260906200524 | 38 | 326 | 4.8 | 17.7 | 0.00 | 0.00 | 0.00 | 26 | 1008.3 |
| 20260906200047 | 38 | 302 | 4.8 | 16.1 | 0.00 | 0.00 | 0.00 | 26 | 1008.4 |
| 20260906195523 | 38 | 229 | 3.2 | 14.5 | 0.00 | 0.00 | 0.00 | 26 | 1008.5 |
| 20260906195024 | 38 | 261 | 4.8 | 14.5 | 0.00 | 0.00 | 0.00 | 25 | 1008.6 |
| 20260906194557 | 37 | 245 | 3.2 | 12.9 | 0.00 | 0.00 | 0.00 | 26 | 1008.6 |
| 20260906194025 | 37 | 10 | 4.8 | 17.7 | 0.00 | 0.00 | 0.00 | 27 | 1008.7 |
| 20260906193525 | 37 | 20 | 6.4 | 17.7 | 0.00 | 0.00 | 0.00 | 26 | 1008.8 |
| 20260906193103 | 37 | 329 | 4.8 | 12.9 | 0.00 | 0.00 | 0.00 | 27 | 1008.7 |
| 20260906192524 | 37 | 321 | 3.2 | 14.5 | 0.00 | 0.00 | 0.00 | 26 | 1008.7 |
| 20260906192026 | 37 | 0 | 1.6 | 14.5 | 0.00 | 0.00 | 0.00 | 27 | 1008.8 |
| 20260906191556 | 38 | 318 | 3.2 | 14.5 | 0.00 | 0.00 | 0.00 | 26 | 1008.8 |
| 20260906191026 | 38 | 219 | 3.2 | 14.5 | 0.00 | 0.00 | 0.00 | 27 | 1008.8 |
| 20260906190523 | 37 | 233 | 4.8 | 14.5 | 0.00 | 0.00 | 0.00 | 28 | 1008.9 |
| 20260906190052 | 37 | 302 | 4.8 | 14.5 | 0.00 | 0.00 | 0.00 | 28 | 1009.1 |
| 20260906185523 | 37 | 217 | 1.6 | 12.9 | 0.00 | 0.00 | 0.00 | 27 | 1009.2 |
| 20260906185024 | 37 | 119 | 3.2 | 12.9 | 0.00 | 0.00 | 0.00 | 27 | 1009.2 |
| 20260906184550 | 37 | 197 | 3.2 | 12.9 | 0.00 | 0.00 | 0.00 | 28 | 1009.4 |
| 20260906184023 | 37 | 258 | 4.8 | 12.9 | 0.00 | 0.00 | 0.00 | 29 | 1009.5 |
| 20260906183526 | 37 | 342 | 0.0 | 14.5 | 0.00 | 0.00 | 0.00 | 28 | 1009.6 |
| 20260906183045 | 36 | 215 | 3.2 | 16.1 | 0.00 | 0.00 | 0.00 | 29 | 1009.7 |
| 20260906182531 | 36 | 303 | 3.2 | 16.1 | 0.00 | 0.00 | 0.00 | 29 | 1009.8 |
| 20260906182026 | 36 | 315 | 3.2 | 16.1 | 0.00 | 0.00 | 0.00 | 29 | 1009.8 |
| 20260906181610 | 36 | 0 | 1.6 | 12.9 | 0.00 | 0.00 | 0.00 | 30 | 1009.9 |
| 20260906181024 | 36 | 216 | 3.2 | 12.9 | 0.00 | 0.00 | 0.00 | 30 | 1010.0 |
| 20260906180524 | 36 | 234 | 3.2 | 11.3 | 0.00 | 0.00 | 0.00 | 30 | 1010.0 |
| 20260906180046 | 36 | 243 | 3.2 | 14.5 | 0.00 | 0.00 | 0.00 | 31 | 1010.0 |
| 20260906175524 | 36 | 213 | 1.6 | 14.5 | 0.00 | 0.00 | 0.00 | 31 | 1010.1 |
| 20260906175026 | 36 | 337 | 3.2 | 14.5 | 0.00 | 0.00 | 0.00 | 31 | 1010.2 |
| 20260906174553 | 36 | 301 | 1.6 | 11.3 | 0.00 | 0.00 | 0.00 | 31 | 1010.1 |
| 20260906174027 | 35 | 194 | 3.2 | 11.3 | 0.00 | 0.00 | 0.00 | 31 | 1010.2 |
| 20260906173527 | 35 | 227 | 1.6 | 11.3 | 0.00 | 0.00 | 0.00 | 33 | 1010.3 |
| 20260906173049 | 34 | 312 | 3.2 | 11.3 | 0.00 | 0.00 | 0.00 | 34 | 1010.4 |
| 20260906172522 | 34 | 309 | 3.2 | 12.9 | 0.00 | 0.00 | 0.00 | 33 | 1010.4 |
| 20260906172029 | 34 | 273 | 3.2 | 12.9 | 0.00 | 0.00 | 0.00 | 33 | 1010.4 |
| 20260906171602 | 34 | 0 | 1.6 | 12.9 | 0.00 | 0.00 | 0.00 | 34 | 1010.6 |
| 20260906171025 | 34 | 360 | 3.2 | 12.9 | 0.00 | 0.00 | 0.00 | 34 | 1010.6 |
| 20260906170526 | 33 | 5 | 1.6 | 6.4 | 0.00 | 0.00 | 0.00 | 34 | 1010.6 |
| 20260906170058 | 33 | 175 | 1.6 | 11.3 | 0.00 | 0.00 | 0.00 | 35 | 1010.5 |
| 20260906165528 | 33 | 303 | 3.2 | 11.3 | 0.00 | 0.00 | 0.00 | 35 | 1010.6 |
| 20260906165029 | 33 | 0 | 1.6 | 11.3 | 0.00 | 0.00 | 0.00 | 35 | 1010.5 |
| 20260906164546 | 33 | 189 | 1.6 | 12.9 | 0.00 | 0.00 | 0.00 | 35 | 1010.6 |
| 20260906164023 | 33 | 287 | 3.2 | 12.9 | 0.00 | 0.00 | 0.00 | 34 | 1010.6 |
| 20260906163523 | 33 | 313 | 1.6 | 8.0 | 0.00 | 0.00 | 0.00 | 36 | 1010.5 |
| 20260906163052 | 33 | 333 | 1.6 | 9.7 | 0.00 | 0.00 | 0.00 | 35 | 1010.5 |
| 20260906162526 | 33 | 207 | 3.2 | 9.7 | 0.00 | 0.00 | 0.00 | 36 | 1010.5 |
| 20260906162025 | 32 | 261 | 1.6 | 9.7 | 0.00 | 0.00 | 0.00 | 36 | 1010.6 |
| 20260906161547 | 32 | 263 | 3.2 | 8.0 | 0.00 | 0.00 | 0.00 | 36 | 1010.5 |
| 20260906161024 | 32 | 0 | 1.6 | 8.0 | 0.00 | 0.00 | 0.00 | 37 | 1010.6 |
| 20260906160525 | 32 | 268 | 1.6 | 8.0 | 0.00 | 0.00 | 0.00 | 37 | 1010.6 |
| 20260906160053 | 32 | 263 | 0.0 | 8.0 | 0.00 | 0.00 | 0.00 | 38 | 1010.6 |
| 20260906155523 | 32 | 271 | 0.0 | 8.0 | 0.00 | 0.00 | 0.00 | 38 | 1010.6 |
| 20260906155023 | 32 | 5 | 3.2 | 8.0 | 0.00 | 0.00 | 0.00 | 38 | 1010.7 |
| 20260906154547 | 32 | 0 | 0.0 | 6.4 | 0.00 | 0.00 | 0.00 | 39 | 1010.7 |
| 20260906154025 | 32 | 333 | 1.6 | 6.4 | 0.00 | 0.00 | 0.00 | 39 | 1010.7 |
| 20260906153525 | 31 | 226 | 0.0 | 6.4 | 0.00 | 0.00 | 0.00 | 40 | 1010.8 |
| 20260906153047 | 31 | 192 | 0.0 | 6.4 | 0.00 | 0.00 | 0.00 | 40 | 1010.9 |
| 20260906152526 | 31 | 192 | 1.6 | 6.4 | 0.00 | 0.00 | 0.00 | 42 | 1010.8 |
| 20260906152025 | 31 | 189 | 0.0 | 4.8 | 0.00 | 0.00 | 0.00 | 44 | 1010.8 |
| 20260906151552 | 31 | 148 | 1.6 | 6.4 | 0.00 | 0.00 | 0.00 | 45 | 1010.8 |
| 20260906151023 | 30 | 148 | 0.0 | 8.0 | 0.00 | 0.00 | 0.00 | 46 | 1010.8 |
| 20260906150523 | 30 | 169 | 1.6 | 8.0 | 0.00 | 0.00 | 0.00 | 48 | 1010.7 |
| 20260906150054 | 30 | 141 | 1.6 | 9.7 | 0.00 | 0.00 | 0.00 | 48 | 1010.7 |
| 20260906145524 | 30 | 154 | 1.6 | 9.7 | 0.00 | 0.00 | 0.00 | 48 | 1010.7 |
| 20260906145027 | 29 | 148 | 3.2 | 9.7 | 0.00 | 0.00 | 0.00 | 48 | 1010.8 |
| 20260906144607 | 29 | 0 | 3.2 | 8.0 | 0.00 | 0.00 | 0.00 | 48 | 1010.8 |
| 20260906144024 | 29 | 135 | 1.6 | 4.8 | 0.00 | 0.00 | 0.00 | 50 | 1010.7 |
| 20260906143523 | 29 | 107 | 1.6 | 4.8 | 0.00 | 0.00 | 0.00 | 49 | 1010.7 |
| 20260906143050 | 29 | 0 | 0.0 | 6.4 | 0.00 | 0.00 | 0.00 | 50 | 1010.7 |
| 20260906142524 | 28 | 0 | 1.6 | 6.4 | 0.00 | 0.00 | 0.00 | 51 | 1010.6 |
| 20260906142025 | 28 | 90 | 1.6 | 4.8 | 0.00 | 0.00 | 0.00 | 52 | 1010.6 |
| 20260906141547 | 28 | 0 | 0.0 | 4.8 | 0.00 | 0.00 | 0.00 | 53 | 1010.5 |
| 20260906141025 | 28 | 0 | 0.0 | 0.0 | 0.00 | 0.00 | 0.00 | 53 | 1010.3 |
| 20260906140525 | 27 | 0 | 0.0 | 0.0 | 0.00 | 0.00 | 0.00 | 53 | 1010.2 |
| 20260906140045 | 27 | 0 | 0.0 | 4.8 | 0.00 | 0.00 | 0.00 | 53 | 1010.0 |
| 20260906135526 | 27 | 0 | 0.0 | 6.4 | 0.00 | 0.00 | 0.00 | 54 | 1009.9 |
| 20260906135022 | 27 | 137 | 0.0 | 6.4 | 0.00 | 0.00 | 0.00 | 55 | 1009.9 |
| 20260906134551 | 26 | 159 | 0.0 | 6.4 | 0.00 | 0.00 | 0.00 | 55 | 1009.8 |
| 20260906134024 | 26 | 159 | 1.6 | 6.4 | 0.00 | 0.00 | 0.00 | 55 | 1009.9 |
| 20260906133522 | 26 | 159 | 1.6 | 6.4 | 0.00 | 0.00 | 0.00 | 56 | 1009.8 |
| 20260906133104 | 26 | 159 | 1.6 | 6.4 | 0.00 | 0.00 | 0.00 | 56 | 1009.7 |
| 20260906132525 | 26 | 159 | 1.6 | 6.4 | 0.00 | 0.00 | 0.00 | 57 | 1009.6 |
| 20260906132023 | 26 | 159 | 0.0 | 4.8 | 0.00 | 0.00 | 0.00 | 58 | 1009.7 |
| 20260906131547 | 26 | 159 | 1.6 | 6.4 | 0.00 | 0.00 | 0.00 | 59 | 1009.6 |
| 20260906131024 | 26 | 159 | 1.6 | 6.4 | 0.00 | 0.00 | 0.00 | 59 | 1009.5 |
| 20260906130527 | 26 | 0 | 1.6 | 6.4 | 0.00 | 0.00 | 0.00 | 59 | 1009.6 |
| 20260906130058 | 26 | 200 | 1.6 | 4.8 | 0.00 | 0.00 | 0.00 | 59 | 1009.7 |
| 20260906125524 | 26 | 200 | 0.0 | 3.2 | 0.00 | 0.00 | 0.00 | 58 | 1009.5 |
| 20260906125026 | 26 | 0 | 0.0 | 1.6 | 0.00 | 0.00 | 0.00 | 58 | 1009.5 |
| 20260906124543 | 26 | 0 | 0.0 | 3.2 | 0.00 | 0.00 | 0.00 | 57 | 1009.4 |
| 20260906124024 | 26 | 0 | 0.0 | 3.2 | 0.00 | 0.00 | 0.00 | 57 | 1009.5 |
| 20260906123523 | 26 | 200 | 0.0 | 3.2 | 0.00 | 0.00 | 0.00 | 57 | 1009.4 |
| 20260906123049 | 26 | 0 | 0.0 | 0.0 | 0.00 | 0.00 | 0.00 | 56 | 1009.4 |
| 20260906122524 | 26 | 0 | 0.0 | 0.0 | 0.00 | 0.00 | 0.00 | 55 | 1009.4 |
| 20260906122025 | 26 | 0 | 0.0 | 0.0 | 0.00 | 0.00 | 0.00 | 56 | 1009.4 |
| 20260906121547 | 26 | 0 | 0.0 | 0.0 | 0.00 | 0.00 | 0.00 | 55 | 1009.4 |
| 20260906121026 | 26 | 0 | 0.0 | 0.0 | 0.00 | 0.00 | 0.00 | 54 | 1009.4 |
| 20260906120526 | 26 | 0 | 0.0 | 0.0 | 0.00 | 0.00 | 0.00 | 54 | 1009.4 |
| 20260906120045 | 26 | 0 | 0.0 | 0.0 | 0.00 | 0.00 | 0.00 | 55 | 1009.4 |
| 20260906115523 | 26 | 0 | 0.0 | 0.0 | 0.00 | 0.00 | 0.00 | 54 | 1009.3 |
| 20260906115024 | 26 | 0 | 0.0 | 1.6 | 0.00 | 0.00 | 0.00 | 54 | 1009.3 |
| 20260906114556 | 26 | 0 | 0.0 | 1.6 | 0.00 | 0.00 | 0.00 | 54 | 1009.3 |
| 20260906114024 | 27 | 0 | 0.0 | 3.2 | 0.00 | 0.00 | 0.00 | 54 | 1009.4 |
| 20260906113524 | 27 | 0 | 0.0 | 3.2 | 0.00 | 0.00 | 0.00 | 54 | 1009.3 |
| 20260906113047 | 27 | 201 | 0.0 | 1.6 | 0.00 | 0.00 | 0.00 | 54 | 1009.3 |
| 20260906112524 | 27 | 0 | 0.0 | 1.6 | 0.00 | 0.00 | 0.00 | 54 | 1009.3 |
| 20260906112027 | 27 | 0 | 0.0 | 3.2 | 0.00 | 0.00 | 0.00 | 54 | 1009.4 |
| 20260906111546 | 27 | 201 | 0.0 | 3.2 | 0.00 | 0.00 | 0.00 | 53 | 1009.3 |
| 20260906111024 | 27 | 0 | 0.0 | 3.2 | 0.00 | 0.00 | 0.00 | 54 | 1009.2 |
| 20260906110524 | 27 | 201 | 0.0 | 3.2 | 0.00 | 0.00 | 0.00 | 53 | 1009.2 |
| 20260906110050 | 27 | 0 | 0.0 | 1.6 | 0.00 | 0.00 | 0.00 | 54 | 1009.1 |
| 20260906105523 | 27 | 0 | 0.0 | 3.2 | 0.00 | 0.00 | 0.00 | 54 | 1009.2 |
| 20260906105023 | 27 | 0 | 0.0 | 4.8 | 0.00 | 0.00 | 0.00 | 53 | 1009.2 |
| 20260906104557 | 27 | 201 | 1.6 | 4.8 | 0.00 | 0.00 | 0.00 | 53 | 1009.1 |
| 20260906104028 | 27 | 201 | 1.6 | 3.2 | 0.00 | 0.00 | 0.00 | 53 | 1009.2 |
| 20260906103523 | 27 | 201 | 0.0 | 3.2 | 0.00 | 0.00 | 0.00 | 53 | 1009.2 |
| 20260906103048 | 27 | 0 | 0.0 | 3.2 | 0.00 | 0.00 | 0.00 | 54 | 1009.1 |
| 20260906102527 | 27 | 0 | 0.0 | 3.2 | 0.00 | 0.00 | 0.00 | 53 | 1009.1 |
| 20260906102023 | 27 | 201 | 0.0 | 3.2 | 0.00 | 0.00 | 0.00 | 53 | 1009.1 |
| 20260906101546 | 27 | 0 | 0.0 | 1.6 | 0.00 | 0.00 | 0.00 | 53 | 1009.2 |
| 20260906101024 | 27 | 0 | 0.0 | 3.2 | 0.00 | 0.00 | 0.00 | 52 | 1009.0 |
| 20260906100525 | 27 | 0 | 0.0 | 3.2 | 0.00 | 0.00 | 0.00 | 52 | 1009.1 |
| 20260906100052 | 27 | 0 | 0.0 | 3.2 | 0.00 | 0.00 | 0.00 | 52 | 1009.0 |
| 20260906095526 | 27 | 201 | 0.0 | 3.2 | 0.00 | 0.00 | 0.00 | 52 | 1009.0 |
| 20260906095023 | 27 | 201 | 1.6 | 3.2 | 0.00 | 0.00 | 0.00 | 51 | 1009.0 |
| 20260906094602 | 27 | 0 | 0.0 | 0.0 | 0.00 | 0.00 | 0.00 | 50 | 1009.0 |
| 20260906094026 | 28 | 0 | 0.0 | 1.6 | 0.00 | 0.00 | 0.00 | 50 | 1009.0 |
| 20260906093525 | 28 | 0 | 0.0 | 3.2 | 0.00 | 0.00 | 0.00 | 49 | 1009.0 |
| 20260906093108 | 28 | 0 | 0.0 | 3.2 | 0.00 | 0.00 | 0.00 | 49 | 1009.0 |
| 20260906092524 | 28 | 0 | 0.0 | 3.2 | 0.00 | 0.00 | 0.00 | 49 | 1009.0 |
| 20260906092023 | 28 | 201 | 0.0 | 1.6 | 0.00 | 0.00 | 0.00 | 49 | 1009.0 |
| 20260906091554 | 28 | 0 | 0.0 | 1.6 | 0.00 | 0.00 | 0.00 | 49 | 1008.9 |
| 20260906091023 | 28 | 0 | 0.0 | 3.2 | 0.00 | 0.00 | 0.00 | 48 | 1009.0 |
| 20260906090530 | 28 | 0 | 0.0 | 3.2 | 0.00 | 0.00 | 0.00 | 47 | 1009.0 |
| 20260906090052 | 28 | 193 | 1.6 | 3.2 | 0.00 | 0.00 | 0.00 | 47 | 1009.1 |
| 20260906085527 | 28 | 0 | 0.0 | 1.6 | 0.00 | 0.00 | 0.00 | 47 | 1009.0 |
| 20260906085026 | 28 | 0 | 0.0 | 0.0 | 0.00 | 0.00 | 0.00 | 47 | 1009.0 |
| 20260906084547 | 28 | 0 | 0.0 | 0.0 | 0.00 | 0.00 | 0.00 | 45 | 1009.0 |
| 20260906084030 | 28 | 0 | 0.0 | 0.0 | 0.00 | 0.00 | 0.00 | 46 | 1009.2 |
| 20260906083524 | 28 | 0 | 0.0 | 0.0 | 0.00 | 0.00 | 0.00 | 45 | 1009.2 |
| 20260906083049 | 28 | 0 | 0.0 | 0.0 | 0.00 | 0.00 | 0.00 | 46 | 1009.1 |
| 20260906082523 | 28 | 0 | 0.0 | 0.0 | 0.00 | 0.00 | 0.00 | 46 | 1009.2 |
| 20260906082028 | 28 | 0 | 0.0 | 1.6 | 0.00 | 0.00 | 0.00 | 47 | 1009.3 |
| 20260906081549 | 28 | 0 | 0.0 | 1.6 | 0.00 | 0.00 | 0.00 | 46 | 1009.3 |
| 20260906081023 | 29 | 0 | 0.0 | 1.6 | 0.00 | 0.00 | 0.00 | 46 | 1009.4 |
| 20260906080524 | 29 | 192 | 0.0 | 1.6 | 0.00 | 0.00 | 0.00 | 46 | 1009.4 |
| 20260906080048 | 29 | 0 | 0.0 | 0.0 | 0.00 | 0.00 | 0.00 | 44 | 1009.4 |
| 20260906075525 | 29 | 0 | 0.0 | 0.0 | 0.00 | 0.00 | 0.00 | 44 | 1009.5 |
| 20260906075025 | 29 | 0 | 0.0 | 1.6 | 0.00 | 0.00 | 0.00 | 44 | 1009.5 |
| 20260906074548 | 29 | 0 | 0.0 | 3.2 | 0.00 | 0.00 | 0.00 | 45 | 1009.5 |
| 20260906074024 | 30 | 0 | 0.0 | 3.2 | 0.00 | 0.00 | 0.00 | 44 | 1009.5 |
| 20260906073525 | 30 | 0 | 0.0 | 0.0 | 0.00 | 0.00 | 0.00 | 43 | 1009.5 |
| 20260906073041 | 30 | 0 | 0.0 | 1.6 | 0.00 | 0.00 | 0.00 | 43 | 1009.5 |
| 20260906072526 | 30 | 0 | 0.0 | 1.6 | 0.00 | 0.00 | 0.00 | 43 | 1009.4 |
| 20260906072024 | 30 | 0 | 0.0 | 3.2 | 0.00 | 0.00 | 0.00 | 42 | 1009.5 |
| 20260906071548 | 30 | 0 | 0.0 | 3.2 | 0.00 | 0.00 | 0.00 | 41 | 1009.5 |
| 20260906071024 | 30 | 244 | 0.0 | 3.2 | 0.00 | 0.00 | 0.00 | 42 | 1009.5 |
| 20260906070524 | 30 | 0 | 0.0 | 1.6 | 0.00 | 0.00 | 0.00 | 42 | 1009.5 |
| 20260906070046 | 30 | 0 | 0.0 | 3.2 | 0.00 | 0.00 | 0.00 | 41 | 1009.7 |
| 20260906065525 | 30 | 0 | 0.0 | 3.2 | 0.00 | 0.00 | 0.00 | 41 | 1009.6 |
| 20260906065023 | 30 | 244 | 0.0 | 3.2 | 0.00 | 0.00 | 0.00 | 40 | 1009.6 |
| 20260906064540 | 30 | 244 | 0.0 | 1.6 | 0.00 | 0.00 | 0.00 | 41 | 1009.7 |
| 20260906064023 | 30 | 0 | 0.0 | 1.6 | 0.00 | 0.00 | 0.00 | 41 | 1009.6 |
| 20260906063527 | 30 | 0 | 0.0 | 1.6 | 0.00 | 0.00 | 0.00 | 41 | 1009.6 |
| 20260906063051 | 30 | 0 | 0.0 | 0.0 | 0.00 | 0.00 | 0.00 | 41 | 1009.7 |
| 20260906062528 | 31 | 0 | 0.0 | 3.2 | 0.00 | 0.00 | 0.00 | 40 | 1009.7 |
| 20260906062026 | 31 | 0 | 0.0 | 3.2 | 0.00 | 0.00 | 0.00 | 40 | 1009.7 |
| 20260906061548 | 31 | 0 | 0.0 | 3.2 | 0.00 | 0.00 | 0.00 | 39 | 1009.6 |
| 20260906061025 | 31 | 244 | 0.0 | 3.2 | 0.00 | 0.00 | 0.00 | 40 | 1009.7 |
| 20260906060528 | 31 | 265 | 0.0 | 3.2 | 0.00 | 0.00 | 0.00 | 39 | 1009.7 |
| 20260906060046 | 31 | 296 | 0.0 | 1.6 | 0.00 | 0.00 | 0.00 | 39 | 1009.7 |
| 20260906055524 | 31 | 0 | 0.0 | 1.6 | 0.00 | 0.00 | 0.00 | 39 | 1009.7 |
| 20260906055024 | 31 | 0 | 0.0 | 3.2 | 0.00 | 0.00 | 0.00 | 38 | 1009.7 |
| 20260906054550 | 31 | 0 | 0.0 | 3.2 | 0.00 | 0.00 | 0.00 | 37 | 1009.8 |
| 20260906054025 | 32 | 296 | 0.0 | 1.6 | 0.00 | 0.00 | 0.00 | 37 | 1009.7 |
| 20260906053524 | 32 | 0 | 0.0 | 1.6 | 0.00 | 0.00 | 0.00 | 36 | 1009.7 |
| 20260906053047 | 32 | 0 | 0.0 | 3.2 | 0.00 | 0.00 | 0.00 | 35 | 1009.7 |
| 20260906052522 | 32 | 0 | 0.0 | 3.2 | 0.00 | 0.00 | 0.00 | 35 | 1009.7 |
| 20260906052024 | 32 | 310 | 0.0 | 3.2 | 0.00 | 0.00 | 0.00 | 35 | 1009.7 |
| 20260906051556 | 32 | 310 | 0.0 | 3.2 | 0.00 | 0.00 | 0.00 | 35 | 1009.7 |
| 20260906051027 | 32 | 0 | 0.0 | 4.8 | 0.00 | 0.00 | 0.00 | 35 | 1009.7 |
| 20260906050525 | 32 | 0 | 0.0 | 4.8 | 0.00 | 0.00 | 0.00 | 34 | 1009.7 |
| 20260906050054 | 32 | 302 | 1.6 | 6.4 | 0.00 | 0.00 | 0.00 | 34 | 1009.8 |
| 20260906045525 | 32 | 302 | 1.6 | 6.4 | 0.00 | 0.00 | 0.00 | 34 | 1009.8 |
| 20260906045024 | 33 | 0 | 1.6 | 6.4 | 0.00 | 0.00 | 0.00 | 34 | 1009.8 |
| 20260906044556 | 33 | 321 | 1.6 | 6.4 | 0.00 | 0.00 | 0.00 | 33 | 1009.8 |
| 20260906044024 | 33 | 315 | 1.6 | 6.4 | 0.00 | 0.00 | 0.00 | 33 | 1009.7 |
| 20260906043523 | 33 | 360 | 1.6 | 8.0 | 0.00 | 0.00 | 0.00 | 33 | 1009.8 |
| 20260906043046 | 33 | 350 | 3.2 | 8.0 | 0.00 | 0.00 | 0.00 | 33 | 1009.7 |
| 20260906042523 | 33 | 326 | 3.2 | 8.0 | 0.00 | 0.00 | 0.00 | 33 | 1009.7 |
| 20260906042025 | 33 | 336 | 3.2 | 8.0 | 0.00 | 0.00 | 0.00 | 33 | 1009.8 |
| 20260906041544 | 33 | 324 | 3.2 | 8.0 | 0.00 | 0.00 | 0.00 | 32 | 1009.8 |
| 20260906041025 | 33 | 329 | 3.2 | 8.0 | 0.00 | 0.00 | 0.00 | 32 | 1009.8 |
| 20260906040523 | 33 | 338 | 3.2 | 8.0 | 0.00 | 0.00 | 0.00 | 32 | 1009.8 |
| 20260906040100 | 33 | 313 | 3.2 | 12.9 | 0.00 | 0.00 | 0.00 | 32 | 1009.8 |
| 20260906035523 | 33 | 344 | 3.2 | 12.9 | 0.00 | 0.00 | 0.00 | 31 | 1009.7 |
| 20260906035025 | 33 | 344 | 3.2 | 9.7 | 0.00 | 0.00 | 0.00 | 31 | 1009.7 |
| 20260906034546 | 33 | 340 | 3.2 | 9.7 | 0.00 | 0.00 | 0.00 | 31 | 1009.7 |
| 20260906034024 | 33 | 343 | 3.2 | 16.1 | 0.00 | 0.00 | 0.00 | 31 | 1009.7 |
| 20260906033526 | 34 | 309 | 4.8 | 16.1 | 0.00 | 0.00 | 0.00 | 31 | 1009.6 |
| 20260906033049 | 34 | 329 | 4.8 | 14.5 | 0.00 | 0.00 | 0.00 | 31 | 1009.5 |
| 20260906032525 | 34 | 344 | 3.2 | 14.5 | 0.00 | 0.00 | 0.00 | 31 | 1009.4 |
| 20260906032025 | 34 | 307 | 4.8 | 14.5 | 0.00 | 0.00 | 0.00 | 31 | 1009.4 |
| 20260906031546 | 34 | 338 | 1.6 | 12.9 | 0.00 | 0.00 | 0.00 | 31 | 1009.3 |
| 20260906031024 | 34 | 313 | 3.2 | 12.9 | 0.00 | 0.00 | 0.00 | 31 | 1009.2 |
| 20260906030526 | 34 | 313 | 3.2 | 12.9 | 0.00 | 0.00 | 0.00 | 31 | 1009.3 |
| 20260906030050 | 34 | 306 | 3.2 | 12.9 | 0.00 | 0.00 | 0.00 | 31 | 1009.2 |
| 20260906025523 | 34 | 302 | 3.2 | 12.9 | 0.00 | 0.00 | 0.00 | 30 | 1009.2 |
| 20260906025024 | 35 | 321 | 4.8 | 12.9 | 0.00 | 0.00 | 0.00 | 30 | 1009.2 |
| 20260906024550 | 35 | 321 | 3.2 | 11.3 | 0.00 | 0.00 | 0.00 | 29 | 1009.3 |
| 20260906024025 | 35 | 324 | 3.2 | 11.3 | 0.00 | 0.00 | 0.00 | 29 | 1009.3 |
| 20260906023525 | 35 | 317 | 3.2 | 11.3 | 0.00 | 0.00 | 0.00 | 29 | 1009.2 |
| 20260906023047 | 35 | 329 | 3.2 | 9.7 | 0.00 | 0.00 | 0.00 | 29 | 1009.2 |
| 20260906022528 | 35 | 321 | 4.8 | 12.9 | 0.00 | 0.00 | 0.00 | 29 | 1009.0 |
| 20260906022024 | 35 | 338 | 4.8 | 12.9 | 0.00 | 0.00 | 0.00 | 29 | 1008.9 |
| 20260906021546 | 35 | 348 | 4.8 | 16.1 | 0.00 | 0.00 | 0.00 | 29 | 1009.0 |
| 20260906021024 | 35 | 350 | 6.4 | 16.1 | 0.00 | 0.00 | 0.00 | 28 | 1009.0 |
| 20260906020524 | 35 | 336 | 6.4 | 16.1 | 0.00 | 0.00 | 0.00 | 28 | 1009.0 |
| 20260906020052 | 35 | 314 | 6.4 | 16.1 | 0.00 | 0.00 | 0.00 | 28 | 1008.9 |
| 20260906015522 | 35 | 313 | 6.4 | 16.1 | 0.00 | 0.00 | 0.00 | 28 | 1008.9 |
| 20260906015023 | 35 | 307 | 6.4 | 16.1 | 0.00 | 0.00 | 0.00 | 28 | 1009.0 |
| 20260906014618 | 35 | 311 | 6.4 | 16.1 | 0.00 | 0.00 | 0.00 | 28 | 1008.9 |
| 20260906014024 | 35 | 323 | 4.8 | 14.5 | 0.00 | 0.00 | 0.00 | 28 | 1009.0 |
| 20260906013525 | 36 | 342 | 4.8 | 19.3 | 0.00 | 0.00 | 0.00 | 28 | 1008.9 |
| 20260906013055 | 36 | 302 | 9.7 | 19.3 | 0.00 | 0.00 | 0.00 | 28 | 1008.9 |
| 20260906012524 | 36 | 331 | 6.4 | 19.3 | 0.00 | 0.00 | 0.00 | 28 | 1009.0 |
| 20260906012023 | 36 | 309 | 8.0 | 17.7 | 0.00 | 0.00 | 0.00 | 27 | 1009.1 |
| 20260906011549 | 36 | 304 | 8.0 | 17.7 | 0.00 | 0.00 | 0.00 | 27 | 1009.2 |
| 20260906011026 | 36 | 287 | 6.4 | 17.7 | 0.00 | 0.00 | 0.00 | 27 | 1009.1 |
| 20260906010525 | 36 | 301 | 4.8 | 17.7 | 0.00 | 0.00 | 0.00 | 27 | 1009.2 |
| 20260906010051 | 36 | 326 | 6.4 | 16.1 | 0.00 | 0.00 | 0.00 | 27 | 1009.1 |
| 20260906005525 | 37 | 302 | 6.4 | 24.1 | 0.00 | 0.00 | 0.00 | 27 | 1009.1 |
| 20260906005025 | 37 | 346 | 4.8 | 24.1 | 0.00 | 0.00 | 0.00 | 27 | 1009.0 |
| 20260906004544 | 37 | 315 | 8.0 | 17.7 | 0.00 | 0.00 | 0.00 | 27 | 1009.0 |
| 20260906004026 | 37 | 294 | 6.4 | 19.3 | 0.00 | 0.00 | 0.00 | 28 | 1008.9 |
| 20260906003524 | 37 | 314 | 8.0 | 19.3 | 0.00 | 0.00 | 0.00 | 27 | 1009.0 |
| 20260906003054 | 37 | 339 | 4.8 | 19.3 | 0.00 | 0.00 | 0.00 | 28 | 1009.0 |
| 20260906002523 | 37 | 317 | 8.0 | 19.3 | 0.00 | 0.00 | 0.00 | 28 | 1009.1 |
| 20260906002025 | 37 | 323 | 9.7 | 22.5 | 0.00 | 0.00 | 0.00 | 28 | 1009.0 |
| 20260906001548 | 37 | 315 | 6.4 | 22.5 | 0.00 | 0.00 | 0.00 | 28 | 1009.0 |
| 20260906001024 | 37 | 312 | 8.0 | 17.7 | 0.00 | 0.00 | 0.00 | 28 | 1008.9 |
| 20260906000525 | 37 | 5 | 4.8 | 17.7 | 0.00 | 0.00 | 0.00 | 29 | 1008.8 |
| 20260906000046 | 37 | 321 | 4.8 | 19.3 | 0.00 | 0.00 | 0.00 | 29 | 1008.8 |
| 20260905235524 | 37 | 344 | 8.0 | 19.3 | 0.00 | 0.00 | 0.00 | 29 | 1008.8 |
| 20260905235029 | 37 | 352 | 9.7 | 19.3 | 0.00 | 0.00 | 0.00 | 29 | 1008.7 |
| 20260905234542 | 37 | 324 | 8.0 | 16.1 | 0.00 | 0.00 | 0.00 | 29 | 1008.7 |
| 20260905234023 | 38 | 334 | 4.8 | 17.7 | 0.00 | 0.00 | 0.00 | 29 | 1008.6 |
| 20260905233530 | 38 | 323 | 4.8 | 17.7 | 0.00 | 0.00 | 0.00 | 29 | 1008.7 |
| 20260905233048 | 38 | 268 | 3.2 | 17.7 | 0.00 | 0.00 | 0.00 | 29 | 1008.8 |
| 20260905232525 | 38 | 279 | 4.8 | 17.7 | 0.00 | 0.00 | 0.00 | 29 | 1008.9 |
| 20260905232025 | 38 | 319 | 4.8 | 16.1 | 0.00 | 0.00 | 0.00 | 29 | 1008.8 |
| 20260905231546 | 38 | 352 | 6.4 | 16.1 | 0.00 | 0.00 | 0.00 | 29 | 1008.8 |
| 20260905231025 | 38 | 346 | 3.2 | 14.5 | 0.00 | 0.00 | 0.00 | 29 | 1008.8 |
| 20260905230525 | 38 | 30 | 4.8 | 14.5 | 0.00 | 0.00 | 0.00 | 29 | 1008.7 |
| 20260905230052 | 38 | 0 | 0.0 | 11.3 | 0.00 | 0.00 | 0.00 | 29 | 1008.8 |
| 20260905225523 | 38 | 267 | 3.2 | 11.3 | 0.00 | 0.00 | 0.00 | 29 | 1008.7 |